Regional Weather Roundup
Issued by NWS Glasgow, MT

Home | Current Version | Previous Version | Text Only | Print | Product List | Glossary On
Versions: 1 2 3 4 5 6 7 8 9 10 11 12 13 14 15 16 17 18 19 20 21 22 23 24 25 26 27 28 29 30 31 32 33 34 35 36 37 38 39 40 41 42 43 44 45 46 47 48 49 50
043
ASUS45 KGGW 251615
RWRGGW
HOURLY REGIONAL WEATHER ROUNDUP FOR NORTHEAST MONTANA
NATIONAL WEATHER SERVICE GLASGOW MONTANA
1000 AM MDT TUE APR 25 2017

NOTE: "FAIR" INDICATES FEW OR NO CLOUDS BELOW 12,000 FEET WITH NO
SIGNIFICANT WEATHER AND/OR OBSTRUCTIONS TO VISISBILITY.

NORTHEAST MONTANA


CITY           SKY/WX    TMP DP  RH WIND       PRES   REMARKS
GLASGOW        CLOUDY    32  25  75 E9        29.94R
PLENTYWOOD       N/A     31  23  72 NE12        N/A
WOLF POINT     CLOUDY    34  24  67 E14       29.97R
JORDAN           N/A     31  26  82 NE12      29.90R
SIDNEY         CLOUDY    32  25  75 E10       29.96R
GLENDIVE       CLOUDY    29  24  82 NE13      29.92R
MALTA            N/A     34  27  75 E6          N/A

FORT PECK REPORTS


CITY           SKY/WX    TMP DP  RH WIND       PRES   REMARKS
FORT PECK        N/A     31  28  89 NE13        N/A
THE PINES        N/A     33  27  78 N1          N/A

SOUTHEAST MONTANA


CITY           SKY/WX    TMP DP  RH WIND       PRES   REMARKS
BILLINGS       CLOUDY    32  30  92 E13       29.84R
MILES CITY     CLOUDY    31  27  85 NE15      29.88R
BAKER          CLOUDY    28  25  88 NE13      29.85S
LIVINGSTON     LGT RAIN  38  37  97 NE10      29.79R

CENTRAL MONTANA


CITY           SKY/WX    TMP DP  RH WIND       PRES   REMARKS
HAVRE          CLOUDY    35  28  75 E21       29.86S
LEWISTOWN      CLOUDY    35  31  85 SE13      29.81S
GREAT FALLS    CLOUDY    41  39  93 E6        29.80S
CUT BANK       FOG       35  35 100 SE8       29.80R VSB 1/4
HELENA         LGT RAIN  43  39  86 SW13      29.80R
BUTTE          CLOUDY    39  30  70 NW12      29.81R
BOZEMAN        LGT RAIN  40  37  89 CALM      29.80R

WESTERN MONTANA


CITY           SKY/WX    TMP DP  RH WIND       PRES   REMARKS
MISSOULA       PTSUNNY   43  40  89 CALM      29.86F
KALISPELL      NOT AVBL

NORTH DAKOTA


CITY           SKY/WX    TMP DP  RH WIND       PRES   REMARKS
WILLISTON      CLOUDY    33  22  63 NE15      29.96R
DICKINSON      CLOUDY    25  23  92 N15       29.85R
MINOT          CLOUDY    32  25  75 N17       29.91R
BISMARCK       CLOUDY    31  26  82 NE18      29.88R

SOUTHERN SASKATCHEWAN


CITY           SKY/WX    TMP DP  RH WIND       PRES   REMARKS
REGINA         CLOUDY    28  18  64 E9        30.03R
MOOSE JAW      CLOUDY    28  21  74 E8        30.04R
ESTEVAN        MOSUNNY   32  21  64 NE14G20   29.97R
SWIFT CURRENT  CLOUDY    27  25  93 E14       29.95R





USA.gov is the U.S. government's official web portal to all federal, state and local government web resources and services.